GFSNW_prec_snow_141.txt.gz
Snowfall_Accumulation
0.0 0.0 0.0 0.0 0.0 0.0 0.0 0.0 10.6 0.0 0.0 5.3 2.8 1.2 0.0 0.0 0.0 0.0 0.0 0.0 0.0 0.0 0.0 0.0 0.0 0.0 0.1 0.0 0.0 0.0 0.0 0.0 0.1 0.0 0.0 0.0 0.3 2.8 4.7 6.4 5.6 3.3 3.3 0.2
0.0 0.0 0.0 0.0 0.0 0.0 0.0 3.9 2.3 0.0 0.0 6.5 3.8 0.1 0.2 0.0 0.0 0.0 0.1 0.1 0.0 0.0 0.0 0.2 0.0 0.0 0.0 0.0 0.0 0.0 0.2 0.6 0.6 0.0 0.0 0.0 0.3 0.4 0.5 4.2 5.3 3.3 4.1 1.2
0.0 0.0 0.0 0.0 0.0 0.0 0.0 9.4 11.0 0.0 0.0 0.3 0.6 2.4 1.8 0.7 0.0 0.0 0.0 0.1 0.0 0.3 0.3 0.1 0.0 0.3 0.0 0.0 0.1 0.0 0.1 0.0 0.5 0.4 0.7 1.2 0.3 0.1 0.4 1.2 1.5 0.6 0.9 0.3
0.0 0.0 0.0 0.0 0.0 0.0 0.0 20.6 9.3 0.1 5.5 4.2 1.7 1.0 1.1 1.8 1.2 0.0 0.1 0.1 0.9 1.6 1.8 0.8 0.8 0.6 0.3 0.0 0.0 0.0 0.9 1.3 0.1 0.0 0.0 0.0 0.0 0.0 0.0 0.0 0.3 0.9 0.0 0.3
0.0 0.0 0.0 0.0 0.0 0.0 2.3 27.7 4.8 0.6 0.7 0.8 1.9 2.2 1.3 0.8 0.5 2.6 1.3 1.3 1.1 1.4 2.8 2.7 2.1 1.5 0.3 0.8 0.5 1.0 0.8 2.5 0.9 0.4 0.0 0.0 0.0 0.0 0.0 0.0 0.2 0.1 0.0 0.3
0.0 0.0 0.0 0.0 0.0 0.0 2.9 0.0 0.0 3.6 1.3 1.8 2.2 2.1 0.7 0.7 2.8 0.3 0.9 4.6 5.5 2.1 2.2 0.2 0.0 0.0 0.0 0.2 1.2 1.9 2.6 3.3 1.8 0.8 0.1 0.3 0.1 0.1 0.0 1.5 2.0 1.7 0.6 1.0
0.0 0.0 0.0 0.0 0.0 0.0 0.0 0.0 0.0 8.3 6.7 2.0 0.1 0.3 0.6 2.2 1.8 2.0 0.8 0.9 1.4 0.0 0.0 0.0 0.0 0.0 0.0 0.0 0.3 0.2 0.9 5.1 4.5 2.7 0.7 2.3 0.1 0.0 0.0 1.7 0.9 0.0 0.1 0.0
0.0 0.0 0.0 0.0 0.0 0.0 0.0 0.0 0.0 6.4 5.1 0.6 0.7 1.4 1.5 0.0 0.0 0.2 0.2 0.1 0.0 0.0 0.0 3.0 0.9 0.8 0.3 0.5 0.4 0.0 0.0 1.4 4.7 4.0 2.2 0.0 0.3 0.2 0.5 1.0 1.0 0.6 0.7 0.1
0.0 0.0 0.0 0.0 0.0 0.0 0.0 0.0 0.0 0.8 8.1 1.0 0.4 0.4 0.2 0.5 0.6 0.6 0.2 0.0 0.0 0.0 2.1 3.5 3.2 5.1 4.0 1.8 2.0 0.2 0.5 1.2 5.5 4.2 4.2 1.7 1.4 0.7 0.0 0.0 4.8 2.3 1.2 0.3
0.0 0.0 0.0 0.0 0.0 0.0 0.0 0.0 0.0 0.0 10.3 0.4 0.6 1.7 0.4 0.0 1.0 2.1 1.1 0.5 0.3 0.0 3.8 2.9 2.9 2.0 0.8 1.9 4.9 7.8 4.0 5.8 8.3 4.7 8.5 3.8 1.5 0.0 0.0 2.2 7.8 1.7 1.3 2.9
0.0 0.0 0.0 0.0 0.0 0.0 0.0 0.0 0.0 0.0 7.5 0.7 0.0 0.0 0.2 1.0 1.7 2.0 3.0 2.5 3.2 2.9 4.0 2.3 1.3 2.1 2.0 2.6 1.4 8.8 11.1 13.6 8.2 8.7 7.9 6.5 1.3 0.4 4.3 3.1 1.6 2.3 2.8 3.5
0.0 0.0 0.0 0.0 0.0 0.0 0.0 0.0 0.0 0.0 0.8 2.2 0.0 0.0 0.0 0.0 0.0 0.0 0.0 2.9 3.9 6.6 7.8 6.8 3.4 2.4 2.0 1.7 3.5 6.0 12.5 10.6 10.5 7.8 6.7 3.9 2.4 2.7 3.3 3.2 3.1 3.4 3.8 2.3
0.0 0.0 0.0 0.0 0.0 0.0 0.0 0.0 0.0 0.0 6.2 6.9 0.0 0.0 0.0 0.0 0.0 0.0 0.6 0.0 0.0 0.0 0.0 6.7 3.8 2.6 1.8 2.6 2.3 5.6 8.1 7.5 13.1 6.4 4.7 2.0 3.6 2.0 2.2 3.1 3.2 1.6 0.0 0.0
0.0 0.0 0.0 0.0 0.0 0.0 0.0 0.0 0.0 0.0 4.1 11.3 1.4 0.0 0.0 0.0 0.0 0.0 0.0 0.0 0.0 0.0 0.0 5.2 3.5 2.3 0.2 0.7 0.9 1.5 8.4 7.4 8.0 11.8 11.7 1.7 3.1 3.4 3.6 2.8 1.4 1.5 0.0 0.0
0.0 0.0 0.0 0.0 0.0 0.0 0.0 0.0 0.0 0.0 0.0 4.1 1.5 0.0 0.0 0.0 0.0 0.0 0.0 0.0 0.0 0.1 3.7 5.4 3.0 0.1 1.1 0.1 0.2 3.7 0.5 2.9 5.1 10.4 7.1 8.9 6.4 8.5 4.7 2.5 0.6 0.0 0.0 0.0
0.0 0.0 0.0 0.0 0.0 0.0 0.0 11.2 0.0 0.0 0.0 7.7 4.3 0.0 0.0 0.0 0.0 0.0 0.0 0.0 0.0 0.1 3.5 3.0 0.1 0.0 0.8 2.8 1.4 0.0 0.0 1.2 3.0 2.7 2.9 4.1 4.7 0.0 0.0 0.8 1.6 1.2 0.0 0.3
0.0 0.0 0.0 0.0 0.0 0.0 2.5 9.5 0.0 0.0 0.0 12.0 9.6 0.6 0.0 0.0 0.0 0.0 0.0 0.0 0.0 0.1 3.5 3.8 0.3 0.0 1.8 2.5 1.1 0.5 0.0 0.1 0.1 0.0 0.0 0.0 0.0 1.1 0.0 0.0 0.0 0.6 0.0 0.0
0.0 0.0 0.0 0.0 0.0 0.0 1.2 0.0 0.0 0.0 0.0 2.3 11.7 3.1 3.4 0.0 0.2 1.1 0.0 0.1 0.2 1.2 0.7 2.0 1.1 0.9 1.5 4.6 0.2 0.0 0.0 0.0 0.1 0.0 0.0 0.1 0.0 0.0 0.0 0.0 0.0 0.0 0.0 0.0
0.0 0.0 0.0 0.0 0.0 16.5 0.0 0.0 0.0 0.0 0.0 7.6 6.6 6.8 8.7 0.0 0.0 0.0 2.2 0.0 6.9 0.0 3.8 0.7 1.8 2.1 4.1 1.3 0.1 0.0 0.0 0.0 0.0 0.0 0.0 0.0 0.0 0.0 0.0 0.0 0.0 0.0 0.0 0.0
0.0 0.0 30.6 50.1 7.8 0.0 0.0 0.0 13.4 11.3 6.6 2.9 5.6 0.5 8.3 0.0 8.9 6.2 7.9 3.5 5.9 6.4 1.3 0.3 2.6 3.1 0.8 0.3 0.2 0.1 0.0 0.0 0.0 0.0 0.0 0.0 0.1 0.0 0.0 0.0 0.0 0.0 0.0 0.0
0.0 25.4 13.9 0.0 0.0 0.0 5.2 18.5 19.7 9.6 9.7 3.4 1.0 0.2 4.2 0.0 11.9 8.6 0.0 15.7 6.2 4.6 1.6 2.3 3.9 3.1 1.0 0.2 0.2 0.0 0.0 0.0 0.0 0.0 0.0 0.0 0.0 0.0 0.0 0.0 0.0 0.0 0.0 0.1
0.0 0.0 0.0 0.0 3.2 9.7 12.5 12.0 10.6 3.2 0.9 0.2 0.0 0.0 0.0 1.2 0.8 10.9 7.7 4.5 10.4 5.0 0.0 5.8 4.2 2.4 0.4 0.0 0.0 0.0 0.0 0.0 0.0 0.0 0.0 0.0 0.0 0.0 0.0 0.0 0.0 0.3 0.2 1.7
0.0 3.5 9.2 15.3 19.6 19.4 11.6 7.3 4.1 1.3 0.2 0.3 0.1 1.7 1.0 1.8 5.2 11.5 9.6 9.4 6.8 0.7 5.2 2.4 1.1 0.5 0.0 0.0 0.0 0.0 0.0 0.0 0.0 0.0 0.0 0.0 0.0 0.0 0.0 0.4 1.2 1.6 2.9 4.3
9.2 23.1 23.9 19.0 14.6 9.6 5.7 2.0 0.4 0.5 0.5 0.3 0.2 2.7 5.2 4.1 6.3 7.8 13.1 11.7 6.3 8.6 4.5 2.9 2.5 1.1 0.8 0.4 0.1 0.0 0.0 0.0 0.0 0.0 0.1 0.0 0.0 0.8 1.6 2.3 3.7 3.3 4.7 6.6
13.6 9.7 10.9 9.8 7.8 5.8 4.5 2.0 0.5 0.7 0.3 0.2 1.0 2.5 6.3 10.3 12.0 9.4 8.6 11.5 9.1 6.3 5.7 5.3 3.8 1.5 1.4 1.2 1.6 1.5 0.6 0.7 2.7 5.1 5.7 4.8 4.3 4.2 5.7 6.2 6.0 4.5 4.9 5.1
7.9 6.3 7.0 5.6 4.4 5.7 4.5 3.5 3.9 1.9 1.9 0.8 2.7 11.5 11.7 13.3 9.7 10.4 6.6 6.6 6.1 6.4 4.2 3.8 2.8 3.0 3.3 3.3 3.4 4.3 5.1 5.9 6.9 7.8 8.3 8.8 7.7 6.8 7.8 8.4 7.3 7.3 6.1 6.4
6.0 7.3 6.2 5.1 4.8 7.5 6.1 5.4 5.3 2.1 4.6 8.3 8.4 9.9 9.7 8.6 7.2 7.0 5.0 5.8 4.8 3.5 3.9 4.7 4.3 4.2 4.7 5.1 5.3 6.2 6.0 6.0 6.8 7.7 6.9 7.5 7.4 6.3 4.4 5.6 7.4 6.1 5.9 5.2

GFSNW_prec_snow_147.txt.gz
Snowfall_Accumulation
0.0 0.0 0.0 0.0 0.0 0.0 0.0 0.0 14.5 0.0 0.0 6.9 2.8 1.2 0.0 0.0 0.0 0.0 0.0 0.0 0.0 0.0 0.0 0.0 0.0 0.0 0.1 0.0 0.0 0.0 0.0 0.0 0.1 0.0 0.0 0.0 0.3 2.8 4.7 6.4 5.7 3.4 3.3 0.2
0.0 0.0 0.0 0.0 0.0 0.0 0.0 8.5 7.8 0.0 0.0 10.1 4.5 0.1 0.2 0.0 0.0 0.0 0.1 0.1 0.0 0.0 0.0 0.2 0.0 0.0 0.0 0.0 0.0 0.0 0.2 0.6 0.6 0.0 0.0 0.0 0.3 0.4 0.5 4.2 5.3 3.3 4.2 1.2
0.0 0.0 0.0 0.0 0.0 0.0 0.0 9.4 16.0 6.3 0.0 0.3 1.3 2.4 1.8 0.7 0.0 0.0 0.0 0.1 0.0 0.3 0.3 0.1 0.0 0.3 0.0 0.0 0.1 0.0 0.1 0.0 0.5 0.4 0.7 1.2 0.3 0.1 0.4 1.2 1.6 0.7 1.0 0.3
0.0 0.0 0.0 0.0 0.0 0.0 0.0 23.4 12.7 0.1 7.2 5.2 2.1 1.0 1.1 1.8 1.5 0.1 0.1 0.1 0.9 1.6 1.8 0.8 0.8 0.6 0.3 0.0 0.0 0.0 0.9 1.3 0.1 0.0 0.0 0.0 0.0 0.0 0.0 0.0 0.3 0.9 0.0 0.3
0.0 0.0 0.0 0.0 0.0 0.0 2.3 31.2 5.8 0.6 0.7 0.8 1.9 2.2 1.4 0.8 0.5 2.6 1.3 1.3 1.1 1.4 2.8 2.7 2.1 1.5 0.3 0.8 0.5 1.0 0.8 2.5 0.9 0.4 0.0 0.0 0.0 0.0 0.0 0.0 0.2 0.2 0.0 0.3
0.0 0.0 0.0 0.0 0.0 0.0 2.9 0.0 0.0 3.6 1.5 1.8 2.2 2.4 0.7 0.7 2.8 0.3 0.9 4.6 5.5 2.3 2.3 0.2 0.0 0.0 0.0 0.2 1.2 1.9 2.6 3.3 1.8 0.8 0.1 0.3 0.1 0.1 0.0 1.5 2.0 1.7 0.6 1.1
0.0 0.0 0.0 0.0 0.0 0.0 0.0 0.0 0.0 8.8 7.7 2.0 0.1 0.3 0.6 2.2 1.8 2.1 0.8 0.9 1.4 0.0 0.0 0.0 0.0 0.0 0.0 0.0 0.3 0.2 0.9 5.1 4.5 2.7 0.7 2.3 0.1 0.0 0.0 1.7 0.9 0.0 0.1 0.0
0.0 0.0 0.0 0.0 0.0 0.0 0.0 0.0 0.0 6.4 5.5 0.6 0.7 1.4 1.5 0.0 0.0 0.2 0.2 0.1 0.0 0.0 0.0 3.0 0.9 0.8 0.3 0.5 0.4 0.0 0.0 1.4 4.7 4.0 2.2 0.0 0.3 0.2 0.5 1.0 1.0 0.6 0.7 0.1
0.0 0.0 0.0 0.0 0.0 0.0 0.0 0.0 0.0 0.8 8.1 1.0 0.4 0.4 0.2 0.5 0.6 0.6 0.2 0.0 0.0 0.0 2.1 3.5 3.2 5.1 4.0 1.8 2.0 0.2 0.5 1.2 5.5 4.3 4.3 1.7 1.5 0.7 0.0 0.0 4.9 2.3 1.2 0.3
0.0 0.0 0.0 0.0 0.0 0.0 0.0 0.0 0.0 0.0 10.3 0.4 0.6 1.8 0.4 0.0 1.0 2.1 1.1 0.5 0.3 0.0 3.8 2.9 2.9 2.0 0.8 1.9 4.9 7.8 4.1 5.8 8.3 4.7 8.6 3.9 1.5 0.0 0.0 2.3 8.0 1.7 1.3 3.0
0.0 0.0 0.0 0.0 0.0 0.0 0.0 0.0 0.0 0.0 7.5 0.7 0.0 0.0 0.2 1.0 1.7 2.0 3.0 2.5 3.2 2.9 4.0 2.3 1.3 2.1 2.0 2.6 1.4 8.8 11.1 13.6 8.2 8.8 8.1 6.6 1.3 0.4 4.3 3.1 1.6 2.3 2.8 3.6
0.0 0.0 0.0 0.0 0.0 0.0 0.0 0.0 0.0 0.0 0.8 2.2 0.0 0.0 0.0 0.0 0.0 0.0 0.0 2.9 3.9 6.6 7.8 6.8 3.4 2.4 2.0 1.7 3.5 6.0 12.5 10.6 10.6 7.9 6.8 3.9 2.4 2.7 3.3 3.2 3.1 3.4 3.8 2.3
0.0 0.0 0.0 0.0 0.0 0.0 0.0 0.0 0.0 0.0 6.2 6.9 0.0 0.0 0.0 0.0 0.0 0.0 0.6 0.0 0.0 0.0 0.0 6.7 3.8 2.6 1.8 2.6 2.3 5.6 8.1 7.5 13.1 6.4 4.7 2.0 3.6 2.0 2.2 3.1 3.2 1.6 0.0 0.0
0.0 0.0 0.0 0.0 0.0 0.0 0.0 0.0 0.0 0.0 4.1 11.3 1.4 0.0 0.0 0.0 0.0 0.0 0.0 0.0 0.0 0.0 0.0 5.2 3.5 2.3 0.2 0.7 0.9 1.5 8.4 7.4 8.0 11.8 11.7 1.7 3.1 3.4 3.6 2.8 1.4 1.5 0.0 0.0
0.0 0.0 0.0 0.0 0.0 0.0 0.0 0.0 0.0 0.0 0.0 4.1 1.5 0.0 0.0 0.0 0.0 0.0 0.0 0.0 0.0 0.1 3.7 5.4 3.0 0.1 1.1 0.1 0.2 3.7 0.5 2.9 5.1 10.4 7.1 8.9 6.4 8.5 4.7 2.5 0.6 0.0 0.0 0.0
0.0 0.0 0.0 0.0 0.0 0.0 0.0 11.2 0.0 0.0 0.0 7.7 4.3 0.0 0.0 0.0 0.0 0.0 0.0 0.0 0.0 0.1 3.5 3.0 0.1 0.0 0.8 2.8 1.4 0.0 0.0 1.2 3.0 2.7 2.9 4.1 4.7 0.0 0.0 0.8 1.6 1.2 0.0 0.3
0.0 0.0 0.0 0.0 0.0 0.0 2.5 9.5 0.0 0.0 0.0 12.0 9.6 0.6 0.0 0.0 0.0 0.0 0.0 0.0 0.0 0.1 3.5 3.8 0.3 0.0 1.8 2.5 1.1 0.5 0.0 0.1 0.1 0.0 0.0 0.0 0.0 1.1 0.0 0.0 0.0 0.6 0.0 0.0
0.0 0.0 0.0 0.0 0.0 0.0 1.2 0.0 0.0 0.0 0.0 2.3 11.7 3.1 3.4 0.0 0.2 1.1 0.0 0.1 0.2 1.2 0.7 2.0 1.1 0.9 1.5 4.6 0.2 0.0 0.0 0.0 0.1 0.0 0.0 0.1 0.0 0.0 0.0 0.0 0.0 0.0 0.0 0.0
0.0 0.0 0.0 0.0 0.0 16.5 0.0 0.0 0.0 0.0 0.0 7.6 6.6 6.8 8.7 0.0 0.0 0.0 2.2 0.0 6.9 0.0 3.8 0.7 1.8 2.1 4.1 1.3 0.1 0.0 0.0 0.0 0.0 0.0 0.0 0.0 0.0 0.0 0.0 0.0 0.0 0.0 0.0 0.0
0.0 0.0 30.6 50.1 7.8 0.0 0.0 0.0 13.4 11.3 6.6 2.9 5.6 0.5 8.3 0.0 8.9 6.2 7.9 3.5 5.9 6.4 1.3 0.3 2.6 3.1 0.8 0.3 0.2 0.1 0.0 0.0 0.0 0.0 0.0 0.0 0.1 0.0 0.0 0.0 0.0 0.0 0.0 0.0
0.0 25.4 13.9 0.0 0.0 0.0 5.2 18.5 19.7 9.6 9.7 3.4 1.0 0.2 4.2 0.0 11.9 8.6 0.0 15.7 6.2 4.6 1.6 2.3 3.9 3.1 1.0 0.2 0.2 0.0 0.0 0.0 0.0 0.0 0.0 0.0 0.0 0.0 0.0 0.0 0.0 0.0 0.0 0.1
0.0 0.0 0.0 0.0 3.2 9.7 12.5 12.0 10.6 3.2 0.9 0.2 0.0 0.0 0.0 1.2 0.8 10.9 7.7 4.5 10.4 5.0 0.0 5.8 4.2 2.4 0.4 0.0 0.0 0.0 0.0 0.0 0.0 0.0 0.0 0.0 0.0 0.0 0.0 0.0 0.0 0.3 0.2 1.7
0.0 3.5 9.2 15.3 19.6 19.4 11.6 7.3 4.1 1.3 0.2 0.3 0.1 1.7 1.0 1.8 5.2 11.5 9.6 9.4 6.8 0.7 5.2 2.4 1.1 0.5 0.0 0.0 0.0 0.0 0.0 0.0 0.0 0.0 0.0 0.0 0.0 0.0 0.0 0.4 1.2 1.6 2.9 4.3
9.2 23.1 23.9 19.0 14.6 9.6 5.7 2.0 0.4 0.5 0.5 0.3 0.2 2.7 5.2 4.1 6.3 7.8 13.1 11.7 6.3 8.6 4.5 2.9 2.5 1.1 0.8 0.4 0.1 0.0 0.0 0.0 0.0 0.0 0.1 0.0 0.0 0.8 1.6 2.3 3.7 3.3 4.7 6.6
13.6 9.7 10.9 9.9 7.8 5.8 4.5 2.0 0.5 0.7 0.3 0.2 1.0 2.5 6.3 10.3 12.0 9.4 8.6 11.5 9.1 6.3 5.7 5.3 3.8 1.5 1.4 1.2 1.6 1.5 0.6 0.7 2.7 5.1 5.7 4.8 4.3 4.2 5.7 6.2 6.0 4.5 4.9 5.1
7.9 6.4 7.1 5.8 4.5 5.8 4.5 3.5 3.9 1.9 1.9 0.8 2.7 11.5 11.7 13.3 9.7 10.4 6.6 6.6 6.1 6.4 4.2 3.8 2.8 3.0 3.3 3.3 3.4 4.3 5.1 5.9 6.9 7.8 8.3 8.8 7.7 6.8 7.8 8.4 7.3 7.3 6.1 6.4
6.0 7.4 6.4 5.2 4.8 7.7 6.3 5.5 5.4 2.1 4.6 8.3 8.4 9.9 9.7 8.6 7.2 7.0 5.0 5.8 4.8 3.5 3.9 4.7 4.3 4.2 4.7 5.1 5.3 6.2 6.0 6.0 6.8 7.7 6.9 7.5 7.4 6.3 4.4 5.7 7.4 6.1 5.9 5.2

GFSNW_prec_snow_150.txt.gz
Snowfall_Accumulation
0.0 0.0 0.0 0.0 0.0 0.0 0.0 0.0 14.5 0.0 0.0 7.8 2.8 1.5 0.0 0.0 0.0 0.0 0.0 0.0 0.0 0.0 0.0 0.0 0.0 0.0 0.1 0.0 0.0 0.0 0.0 0.0 0.1 0.0 0.0 0.0 0.3 2.8 4.7 6.4 5.7 3.4 3.3 0.2
0.0 0.0 0.0 0.0 0.0 0.0 0.0 8.5 9.1 0.0 0.0 13.2 5.4 0.1 0.2 0.0 0.0 0.0 0.1 0.1 0.0 0.0 0.0 0.2 0.0 0.0 0.0 0.0 0.0 0.0 0.2 0.6 0.6 0.0 0.0 0.0 0.3 0.4 0.5 4.2 5.3 3.3 4.2 1.2
0.0 0.0 0.0 0.0 0.0 0.0 0.0 9.4 18.4 8.3 1.7 0.3 2.2 2.4 1.8 0.7 0.0 0.0 0.0 0.1 0.0 0.3 0.3 0.1 0.0 0.3 0.0 0.0 0.1 0.0 0.1 0.0 0.5 0.4 0.7 1.2 0.3 0.1 0.4 1.2 1.6 0.7 1.0 0.3
0.0 0.0 0.0 0.0 0.0 0.0 0.0 23.4 14.0 0.1 7.9 5.6 2.1 1.0 1.1 1.8 1.5 0.1 0.1 0.1 0.9 1.6 1.8 0.8 0.8 0.6 0.3 0.0 0.0 0.0 0.9 1.3 0.1 0.0 0.0 0.0 0.0 0.0 0.0 0.0 0.3 0.9 0.0 0.3
0.0 0.0 0.0 0.0 0.0 0.0 2.3 33.2 5.8 0.6 0.7 0.8 1.9 2.2 1.4 0.8 0.5 2.6 1.3 1.3 1.1 1.4 2.8 2.7 2.1 1.5 0.3 0.8 0.5 1.0 0.8 2.5 0.9 0.4 0.0 0.0 0.0 0.0 0.0 0.0 0.2 0.2 0.0 0.3
0.0 0.0 0.0 0.0 0.0 0.0 2.9 0.0 0.0 3.6 1.5 1.8 2.2 2.4 0.7 0.7 2.8 0.3 0.9 4.6 5.5 2.3 2.3 0.2 0.0 0.0 0.0 0.2 1.2 1.9 2.6 3.3 1.8 0.8 0.1 0.3 0.1 0.1 0.0 1.5 2.0 1.7 0.6 1.1
0.0 0.0 0.0 0.0 0.0 0.0 0.0 0.0 0.0 8.8 8.0 2.0 0.1 0.3 0.6 2.2 1.8 2.1 0.8 0.9 1.4 0.0 0.0 0.0 0.0 0.0 0.0 0.0 0.3 0.2 0.9 5.1 4.5 2.7 0.7 2.3 0.1 0.0 0.0 1.7 0.9 0.0 0.1 0.0
0.0 0.0 0.0 0.0 0.0 0.0 0.0 0.0 0.0 6.4 5.5 0.6 0.7 1.4 1.5 0.0 0.0 0.2 0.2 0.1 0.0 0.0 0.0 3.0 0.9 0.8 0.3 0.5 0.4 0.0 0.0 1.4 4.7 4.0 2.2 0.0 0.3 0.2 0.5 1.0 1.0 0.6 0.7 0.1
0.0 0.0 0.0 0.0 0.0 0.0 0.0 0.0 0.0 0.8 8.1 1.0 0.4 0.4 0.2 0.5 0.6 0.6 0.2 0.0 0.0 0.0 2.1 3.5 3.2 5.1 4.0 1.8 2.0 0.2 0.5 1.2 5.5 4.3 4.3 1.7 1.5 0.7 0.0 0.0 4.9 2.3 1.2 0.3
0.0 0.0 0.0 0.0 0.0 0.0 0.0 0.0 0.0 0.0 10.3 0.4 0.6 1.8 0.4 0.0 1.0 2.1 1.1 0.5 0.3 0.0 3.8 2.9 2.9 2.0 0.8 1.9 4.9 7.8 4.1 5.8 8.3 4.7 8.7 3.9 1.5 0.0 0.0 2.3 8.0 1.7 1.3 3.0
0.0 0.0 0.0 0.0 0.0 0.0 0.0 0.0 0.0 0.0 7.5 0.7 0.0 0.0 0.2 1.0 1.7 2.0 3.0 2.5 3.2 2.9 4.0 2.3 1.3 2.1 2.0 2.6 1.4 8.8 11.1 13.6 8.2 8.8 8.1 6.7 1.3 0.4 4.3 3.1 1.6 2.3 2.8 3.6
0.0 0.0 0.0 0.0 0.0 0.0 0.0 0.0 0.0 0.0 0.8 2.2 0.0 0.0 0.0 0.0 0.0 0.0 0.0 2.9 3.9 6.6 7.8 6.8 3.4 2.4 2.0 1.7 3.5 6.0 12.5 10.6 10.6 7.9 6.8 3.9 2.4 2.7 3.3 3.2 3.1 3.4 3.8 2.3
0.0 0.0 0.0 0.0 0.0 0.0 0.0 0.0 0.0 0.0 6.2 6.9 0.0 0.0 0.0 0.0 0.0 0.0 0.6 0.0 0.0 0.0 0.0 6.7 3.8 2.6 1.8 2.6 2.3 5.6 8.1 7.5 13.1 6.5 4.7 2.0 3.6 2.0 2.2 3.1 3.2 1.6 0.0 0.0
0.0 0.0 0.0 0.0 0.0 0.0 0.0 0.0 0.0 0.0 4.1 12.1 1.9 0.0 0.0 0.0 0.0 0.0 0.0 0.0 0.0 0.0 0.0 5.2 3.5 2.3 0.2 0.7 0.9 1.5 8.4 7.4 8.0 11.8 11.7 1.7 3.1 3.4 3.6 2.8 1.4 1.5 0.0 0.0
0.0 0.0 0.0 0.0 0.0 0.0 0.0 0.0 0.0 0.0 0.0 4.2 1.6 0.0 0.0 0.0 0.0 0.0 0.0 0.0 0.0 0.1 3.7 5.4 3.0 0.1 1.1 0.1 0.2 3.7 0.5 2.9 5.1 10.4 7.1 8.9 6.4 8.5 4.7 2.5 0.6 0.0 0.0 0.0
0.0 0.0 0.0 0.0 0.0 0.0 0.0 11.2 0.0 0.0 0.0 7.7 4.4 0.0 0.0 0.0 0.0 0.0 0.0 0.0 0.0 0.1 3.5 3.0 0.1 0.0 0.8 2.8 1.4 0.0 0.0 1.2 3.0 2.7 2.9 4.1 4.7 0.0 0.0 0.8 1.6 1.2 0.0 0.3
0.0 0.0 0.0 0.0 0.0 0.0 2.5 9.5 0.0 0.0 0.0 12.0 9.6 0.6 0.0 0.0 0.0 0.0 0.0 0.0 0.0 0.1 3.5 3.8 0.3 0.0 1.8 2.5 1.1 0.5 0.0 0.1 0.1 0.0 0.0 0.0 0.0 1.1 0.0 0.0 0.0 0.6 0.0 0.0
0.0 0.0 0.0 0.0 0.0 0.0 1.2 0.0 0.0 0.0 0.0 2.3 11.7 3.1 3.4 0.0 0.2 1.1 0.0 0.1 0.2 1.2 0.7 2.0 1.1 0.9 1.5 4.6 0.2 0.0 0.0 0.0 0.1 0.0 0.0 0.1 0.0 0.0 0.0 0.0 0.0 0.0 0.0 0.0
0.0 0.0 0.0 0.0 0.0 16.5 0.0 0.0 0.0 0.0 0.0 7.6 6.6 6.8 8.7 0.0 0.0 0.0 2.2 0.0 6.9 0.0 3.8 0.7 1.8 2.1 4.1 1.3 0.1 0.0 0.0 0.0 0.0 0.0 0.0 0.0 0.0 0.0 0.0 0.0 0.0 0.0 0.0 0.0
0.0 0.0 30.6 50.2 7.8 0.0 0.0 0.0 13.4 11.3 6.6 2.9 5.6 0.5 8.3 0.0 8.9 6.2 7.9 3.5 5.9 6.4 1.3 0.3 2.6 3.1 0.8 0.3 0.2 0.1 0.0 0.0 0.0 0.0 0.0 0.0 0.1 0.0 0.0 0.0 0.0 0.0 0.0 0.0
0.0 25.4 13.9 0.0 0.0 0.0 5.2 18.5 19.7 9.6 9.7 3.4 1.0 0.2 4.2 0.0 11.9 8.6 0.0 15.7 6.2 4.6 1.6 2.3 3.9 3.1 1.0 0.2 0.2 0.0 0.0 0.0 0.0 0.0 0.0 0.0 0.0 0.0 0.0 0.0 0.0 0.0 0.0 0.1
0.0 0.0 0.0 0.0 3.2 9.7 12.5 12.0 10.6 3.2 0.9 0.2 0.0 0.0 0.0 1.2 0.8 10.9 7.7 4.5 10.4 5.0 0.0 5.8 4.2 2.4 0.4 0.0 0.0 0.0 0.0 0.0 0.0 0.0 0.0 0.0 0.0 0.0 0.0 0.0 0.0 0.3 0.2 1.7
0.0 3.5 9.2 15.3 19.6 19.4 11.6 7.3 4.1 1.3 0.2 0.3 0.1 1.7 1.0 1.8 5.2 11.5 9.6 9.4 6.8 0.7 5.2 2.4 1.1 0.5 0.0 0.0 0.0 0.0 0.0 0.0 0.0 0.0 0.0 0.0 0.0 0.0 0.0 0.4 1.2 1.6 2.9 4.3
9.2 23.1 23.9 19.0 14.6 9.6 5.7 2.0 0.4 0.5 0.5 0.3 0.2 2.7 5.2 4.1 6.3 7.8 13.1 11.7 6.3 8.6 4.5 2.9 2.5 1.1 0.8 0.4 0.1 0.0 0.0 0.0 0.0 0.0 0.1 0.0 0.0 0.8 1.6 2.3 3.7 3.3 4.7 6.6
13.6 9.7 10.9 9.9 7.8 5.8 4.5 2.0 0.5 0.7 0.3 0.2 1.0 2.5 6.3 10.3 12.0 9.4 8.6 11.5 9.1 6.3 5.7 5.3 3.8 1.5 1.4 1.2 1.6 1.5 0.6 0.7 2.7 5.1 5.7 4.8 4.3 4.2 5.7 6.2 6.0 4.5 4.9 5.1
7.9 6.5 7.2 5.9 4.6 5.8 4.6 3.5 3.9 1.9 1.9 0.8 2.7 11.5 11.7 13.3 9.7 10.4 6.6 6.6 6.1 6.4 4.3 3.8 2.8 3.0 3.3 3.3 3.4 4.3 5.1 5.9 6.9 7.8 8.3 8.8 7.7 6.8 7.8 8.4 7.3 7.3 6.1 6.4
6.0 7.5 6.6 5.2 4.9 7.8 6.3 5.5 5.4 2.1 4.6 8.3 8.4 9.9 9.7 8.6 7.2 7.0 5.0 5.8 4.8 3.5 3.9 4.7 4.3 4.2 4.7 5.1 5.3 6.2 6.0 6.0 6.8 7.7 6.9 7.5 7.4 6.3 4.4 5.7 7.4 6.1 5.9 5.2

GFSNW_prec_snow_156.txt.gz
Snowfall_Accumulation
0.0 0.0 0.0 0.0 0.0 0.0 0.0 0.0 15.1 0.0 0.0 10.1 7.1 2.8 0.0 0.0 0.0 0.0 0.0 0.0 0.0 0.0 0.0 0.0 0.0 0.0 0.1 0.0 0.0 0.0 0.0 0.0 0.1 0.0 0.0 0.0 0.3 2.8 4.7 6.4 5.7 3.4 3.3 0.2
0.0 0.0 0.0 0.0 0.0 0.0 0.0 8.5 9.1 0.0 0.0 19.9 9.2 0.1 0.2 0.0 0.0 0.0 0.1 0.1 0.0 0.0 0.0 0.2 0.0 0.0 0.0 0.0 0.0 0.0 0.2 0.6 0.6 0.0 0.0 0.0 0.3 0.4 0.5 4.2 5.3 3.3 4.2 1.2
0.0 0.0 0.0 0.0 0.0 0.0 0.0 9.4 20.8 10.0 1.7 2.7 2.2 2.4 1.8 0.7 0.0 0.0 0.0 0.1 0.0 0.3 0.3 0.1 0.0 0.3 0.0 0.0 0.1 0.0 0.1 0.0 0.5 0.4 0.7 1.2 0.3 0.1 0.4 1.2 1.6 0.7 1.0 0.3
0.0 0.0 0.0 0.0 0.0 0.0 0.0 23.4 16.8 0.1 9.7 6.5 2.1 1.0 1.1 1.8 1.5 0.1 0.1 0.1 0.9 1.6 2.3 0.8 0.8 0.6 0.3 0.0 0.0 0.0 0.9 1.3 0.1 0.0 0.0 0.0 0.0 0.0 0.0 0.0 0.3 0.9 0.0 0.3
0.0 0.0 0.0 0.0 0.0 0.0 2.3 39.1 9.0 0.6 0.7 0.8 1.9 2.2 2.5 1.1 0.5 2.6 1.3 1.3 1.1 1.4 2.8 2.7 2.1 1.5 0.3 0.8 0.5 1.0 0.8 2.5 0.9 0.4 0.0 0.0 0.0 0.0 0.0 0.0 0.2 0.2 0.0 0.3
0.0 0.0 0.0 0.0 0.0 0.0 2.9 0.0 0.0 3.6 1.5 1.8 2.2 2.4 0.7 0.7 2.8 0.3 0.9 4.6 5.5 2.3 2.3 0.2 0.0 0.0 0.0 0.2 1.2 1.9 2.6 3.3 1.8 0.8 0.1 0.3 0.1 0.1 0.0 1.5 2.0 1.7 0.6 1.1
0.0 0.0 0.0 0.0 0.0 0.0 0.0 0.0 0.0 13.7 9.2 2.0 0.1 0.3 0.6 2.2 1.8 2.1 0.8 0.9 1.4 0.0 0.0 0.0 0.0 0.0 0.0 0.0 0.3 0.2 0.9 5.1 4.5 2.7 0.7 2.3 0.1 0.0 0.0 1.7 0.9 0.0 0.1 0.0
0.0 0.0 0.0 0.0 0.0 0.0 0.0 0.0 0.0 9.0 9.8 0.6 0.7 1.4 1.5 0.0 0.0 0.2 0.2 0.1 0.0 0.0 0.0 3.0 1.0 0.8 0.3 0.5 0.4 0.0 0.0 1.4 4.7 4.0 2.2 0.0 0.3 0.2 0.5 1.0 1.0 0.6 0.7 0.1
0.0 0.0 0.0 0.0 0.0 0.0 0.0 0.0 0.0 0.8 13.6 4.0 0.4 0.4 0.2 0.5 0.6 0.6 0.2 0.0 0.0 0.0 2.1 3.5 3.5 5.1 4.0 1.8 2.0 0.2 0.5 1.2 5.5 4.3 4.3 1.7 1.5 0.7 0.0 0.0 4.9 2.3 1.2 0.3
0.0 0.0 0.0 0.0 0.0 0.0 0.0 0.0 0.0 0.0 12.4 0.4 0.6 2.9 0.4 0.0 1.0 2.1 1.1 0.5 0.3 0.0 3.9 3.1 2.9 2.0 0.8 1.9 4.9 7.8 4.1 5.8 8.3 4.7 8.7 3.9 1.5 0.0 0.0 2.3 8.0 1.7 1.3 3.0
0.0 0.0 0.0 0.0 0.0 0.0 0.0 0.0 0.0 0.0 7.5 0.7 0.0 0.0 0.2 1.0 1.7 2.0 3.0 2.5 3.2 2.9 4.0 2.4 1.3 2.1 2.0 2.6 1.4 8.8 11.1 13.6 8.2 8.8 8.1 6.7 1.3 0.4 4.3 3.1 1.6 2.3 2.8 3.6
0.0 0.0 0.0 0.0 0.0 0.0 0.0 0.0 0.0 0.0 0.8 2.2 0.0 0.0 0.0 0.0 0.0 0.0 0.0 2.9 3.9 6.6 7.8 6.8 3.4 2.4 2.0 1.7 3.5 6.0 12.5 10.6 10.6 7.9 6.8 3.9 2.4 2.7 3.3 3.2 3.1 3.4 3.8 2.3
0.0 0.0 0.0 0.0 0.0 0.0 0.0 0.0 0.0 0.0 6.2 6.9 0.0 0.0 0.0 0.0 0.0 0.0 0.6 0.0 0.0 0.0 0.0 6.7 3.8 2.6 1.8 2.6 2.3 5.6 8.1 7.5 13.1 6.5 4.7 2.0 3.6 2.0 2.2 3.1 3.2 1.6 0.0 0.0
0.0 0.0 0.0 0.0 0.0 0.0 0.0 0.0 0.0 0.0 4.1 15.7 2.2 0.0 0.0 0.0 0.0 0.0 0.0 0.0 0.0 0.0 0.0 5.2 3.5 2.3 0.2 0.7 0.9 1.5 8.4 7.4 8.0 11.8 11.7 1.7 3.1 3.4 3.6 2.8 1.4 1.5 0.0 0.0
0.0 0.0 0.0 0.0 0.0 0.0 0.0 0.0 0.0 0.0 0.0 4.9 2.7 0.0 0.0 0.0 0.0 0.0 0.0 0.0 0.0 0.1 3.7 5.4 3.0 0.1 1.1 0.1 0.2 3.7 0.5 2.9 5.1 10.4 7.1 8.9 6.4 8.5 4.7 2.5 0.6 0.0 0.0 0.0
0.0 0.0 0.0 0.0 0.0 0.0 0.0 11.2 0.0 0.0 0.0 8.9 6.5 0.0 0.0 0.0 0.0 0.0 0.0 0.0 0.0 0.1 3.5 3.0 0.1 0.0 0.8 2.8 1.4 0.0 0.0 1.2 3.0 2.7 2.9 4.1 4.7 0.0 0.0 0.8 1.6 1.2 0.0 0.3
0.0 0.0 0.0 0.0 0.0 0.0 2.5 9.5 0.0 0.0 0.0 13.0 10.8 2.0 0.0 0.0 0.0 0.0 0.0 0.0 0.0 0.1 3.5 3.8 0.3 0.0 1.8 2.5 1.1 0.5 0.0 0.1 0.1 0.0 0.0 0.0 0.0 1.1 0.0 0.0 0.0 0.6 0.0 0.0
0.0 0.0 0.0 0.0 0.0 0.0 1.2 0.0 0.0 0.0 0.0 2.3 12.1 3.8 3.4 0.0 0.2 1.1 0.0 0.1 0.2 1.2 0.7 2.0 1.1 0.9 1.5 4.6 0.2 0.0 0.0 0.0 0.1 0.0 0.0 0.1 0.0 0.0 0.0 0.0 0.0 0.0 0.0 0.0
0.0 0.0 0.0 0.0 0.0 16.5 0.0 0.0 0.0 0.0 0.0 7.7 6.6 6.8 8.7 0.0 0.0 0.0 2.2 0.0 6.9 0.0 3.8 0.7 1.8 2.1 4.1 1.3 0.1 0.0 0.0 0.0 0.0 0.0 0.0 0.0 0.0 0.0 0.0 0.0 0.0 0.0 0.0 0.0
0.0 0.0 30.6 53.8 7.8 0.0 0.0 0.0 13.4 11.3 6.6 2.9 5.6 0.5 8.3 0.0 8.9 6.2 7.9 3.5 5.9 6.4 1.3 0.3 2.6 3.1 0.8 0.3 0.2 0.1 0.0 0.0 0.0 0.0 0.0 0.0 0.1 0.0 0.0 0.0 0.0 0.0 0.0 0.0
0.0 26.1 14.5 0.0 0.0 0.0 6.5 19.5 19.9 9.6 9.7 3.4 1.0 0.2 4.2 0.0 11.9 8.6 0.0 15.7 6.2 4.6 1.6 2.3 3.9 3.1 1.0 0.2 0.2 0.0 0.0 0.0 0.0 0.0 0.0 0.0 0.0 0.0 0.0 0.0 0.0 0.0 0.0 0.1
0.0 0.0 0.0 0.0 3.2 10.1 12.7 12.0 10.6 3.2 0.9 0.2 0.0 0.0 0.0 1.2 0.8 10.9 7.7 4.5 10.4 5.0 0.0 5.8 4.2 2.4 0.4 0.0 0.0 0.0 0.0 0.0 0.0 0.0 0.0 0.0 0.0 0.0 0.0 0.0 0.0 0.3 0.2 1.7
0.0 3.5 9.2 15.5 19.7 19.4 11.6 7.3 4.1 1.3 0.2 0.3 0.1 1.7 1.0 1.8 5.2 11.5 9.6 9.4 6.8 0.7 5.2 2.4 1.1 0.5 0.0 0.0 0.0 0.0 0.0 0.0 0.0 0.0 0.0 0.0 0.0 0.0 0.0 0.4 1.2 1.6 2.9 4.3
9.3 23.1 23.9 19.0 14.6 9.6 5.7 2.0 0.4 0.5 0.5 0.3 0.2 2.7 5.2 4.1 6.3 7.8 13.1 11.7 6.3 8.6 4.5 2.9 2.5 1.1 0.8 0.4 0.1 0.0 0.0 0.0 0.0 0.0 0.1 0.0 0.0 0.8 1.6 2.3 3.7 3.3 4.7 6.6
13.6 9.7 10.9 9.9 7.8 5.8 4.5 2.0 0.5 0.7 0.3 0.2 1.0 2.5 6.3 10.3 12.0 9.4 8.6 11.5 9.1 6.3 5.7 5.3 3.8 1.5 1.4 1.2 1.6 1.5 0.6 0.7 2.7 5.1 5.7 4.8 4.3 4.2 5.7 6.2 6.0 4.5 4.9 5.1
7.9 6.5 7.6 6.0 4.7 5.8 4.6 3.5 3.9 1.9 1.9 0.8 2.7 11.5 11.7 13.3 9.7 10.4 6.6 6.6 6.1 6.4 4.3 3.8 2.8 3.0 3.3 3.3 3.4 4.3 5.1 5.9 6.9 7.8 8.3 8.8 7.7 6.8 7.8 8.4 7.3 7.3 6.1 6.4
6.0 7.8 7.1 5.6 5.3 8.0 6.3 5.5 5.4 2.1 4.6 8.3 8.4 9.9 9.7 8.6 7.2 7.0 5.0 5.8 4.8 3.5 3.9 4.7 4.3 4.2 4.7 5.1 5.3 6.2 6.0 6.0 6.8 7.7 6.9 7.5 7.4 6.3 4.4 5.7 7.4 6.1 5.9 5.2

GFSNW_prec_snow_159.txt.gz
Snowfall_Accumulation
0.0 0.0 0.0 0.0 0.0 0.0 0.0 0.0 15.3 0.0 0.0 10.1 7.1 4.1 0.0 0.0 0.0 0.0 0.0 0.0 0.0 0.0 0.0 0.0 0.0 0.0 0.1 0.0 0.0 0.0 0.0 0.0 0.1 0.0 0.0 0.0 0.3 2.8 4.7 6.4 5.7 3.4 3.3 0.2
0.0 0.0 0.0 0.0 0.0 0.0 0.0 8.5 9.1 0.0 0.0 20.4 9.8 0.1 0.2 0.0 0.0 0.0 0.1 0.1 0.0 0.0 0.0 0.2 0.0 0.0 0.0 0.0 0.0 0.0 0.2 0.6 0.6 0.0 0.0 0.0 0.3 0.4 0.5 4.2 5.3 3.3 4.2 1.2
0.0 0.0 0.0 0.0 0.0 0.0 0.0 9.4 21.3 10.0 1.7 2.7 2.3 2.4 1.8 0.7 0.0 0.0 0.0 0.1 0.0 0.3 0.3 0.1 0.0 0.3 0.0 0.0 0.1 0.0 0.1 0.0 0.5 0.4 0.7 1.2 0.3 0.1 0.4 1.2 1.6 0.7 1.0 0.3
0.0 0.0 0.0 0.0 0.0 0.0 0.0 23.4 17.3 0.1 10.5 7.1 2.1 1.0 1.1 1.8 1.5 0.1 0.1 0.1 0.9 1.6 2.3 0.8 0.8 0.6 0.3 0.0 0.0 0.0 0.9 1.3 0.1 0.0 0.0 0.0 0.0 0.0 0.0 0.0 0.3 0.9 0.0 0.3
0.0 0.0 0.0 0.0 0.0 0.0 2.3 40.1 9.0 0.6 0.7 0.8 1.9 2.2 2.5 1.1 0.5 2.6 1.3 1.3 1.1 1.4 4.9 2.7 2.9 1.5 0.3 0.8 0.5 1.0 0.8 2.5 0.9 0.4 0.0 0.0 0.0 0.0 0.0 0.0 0.2 0.2 0.0 0.3
0.0 0.0 0.0 0.0 0.0 0.0 2.9 0.0 0.0 3.6 1.5 1.8 2.2 2.4 0.7 0.7 2.8 0.3 0.9 4.6 5.5 2.3 2.3 0.2 0.0 0.0 0.0 0.2 1.2 1.9 2.6 3.3 1.8 0.8 0.1 0.3 0.1 0.1 0.0 1.5 2.0 1.7 0.6 1.1
0.0 0.0 0.0 0.0 0.0 0.0 0.0 0.0 0.0 14.6 9.2 2.1 0.1 0.3 0.6 2.2 1.8 2.1 0.8 0.9 1.4 0.0 0.0 0.0 0.0 0.0 0.0 0.0 0.3 0.2 0.9 5.1 4.5 2.7 0.7 2.3 0.1 0.0 0.0 1.7 0.9 0.0 0.1 0.0
0.0 0.0 0.0 0.0 0.0 0.0 0.0 0.0 0.0 9.3 10.9 0.6 0.8 1.4 1.5 0.0 0.0 0.2 0.2 0.1 0.0 0.0 0.0 3.6 1.4 1.1 0.6 0.6 0.4 0.0 0.0 1.4 4.7 4.0 2.2 0.0 0.3 0.2 0.5 1.0 1.0 0.6 0.7 0.1
0.0 0.0 0.0 0.0 0.0 0.0 0.0 0.0 0.0 0.8 13.6 4.0 0.4 0.6 0.2 0.5 0.6 0.8 0.2 0.0 0.0 0.0 2.7 4.1 3.9 5.1 4.2 1.8 2.0 0.2 0.5 1.2 5.5 4.3 4.3 1.7 1.5 0.7 0.0 0.0 4.9 2.3 1.2 0.3
0.0 0.0 0.0 0.0 0.0 0.0 0.0 0.0 0.0 0.0 12.6 0.4 0.6 3.8 0.4 0.0 1.0 2.1 1.1 0.5 0.3 0.0 5.0 4.3 3.4 2.1 0.8 1.9 4.9 7.8 4.1 5.8 8.3 4.7 8.7 3.9 1.5 0.0 0.0 2.3 8.0 1.7 1.3 3.0
0.0 0.0 0.0 0.0 0.0 0.0 0.0 0.0 0.0 0.0 7.5 0.7 0.0 0.0 0.2 1.0 1.7 2.1 3.0 2.5 3.7 3.8 4.8 2.8 1.5 2.1 2.0 2.6 1.4 8.8 11.1 13.6 8.2 8.8 8.1 6.7 1.3 0.4 4.3 3.1 1.6 2.3 2.8 3.6
0.0 0.0 0.0 0.0 0.0 0.0 0.0 0.0 0.0 0.0 0.8 2.2 0.0 0.0 0.0 0.0 0.0 0.0 0.0 2.9 3.9 6.6 7.9 6.8 3.4 2.4 2.0 1.7 3.5 6.0 12.5 10.6 10.6 7.9 6.8 3.9 2.4 2.7 3.3 3.2 3.1 3.4 3.8 2.3
0.0 0.0 0.0 0.0 0.0 0.0 0.0 0.0 0.0 0.0 6.2 6.9 0.0 0.0 0.0 0.0 0.0 0.0 0.6 0.0 0.0 0.0 0.0 6.7 3.9 2.6 1.8 2.6 2.3 5.6 8.1 7.5 13.1 6.5 4.7 2.0 3.6 2.0 2.2 3.1 3.2 1.6 0.0 0.0
0.0 0.0 0.0 0.0 0.0 0.0 0.0 0.0 0.0 0.0 4.1 16.0 2.2 0.0 0.0 0.0 0.0 0.0 0.0 0.0 0.0 0.0 0.0 5.2 3.5 2.3 0.2 0.7 0.9 1.5 8.4 7.4 8.0 11.8 11.7 1.7 3.1 3.4 3.6 2.8 1.4 1.5 0.0 0.0
0.0 0.0 0.0 0.0 0.0 0.0 0.0 0.0 0.0 0.0 0.0 4.9 3.6 0.0 0.0 0.0 0.0 0.0 0.0 0.0 0.0 0.1 3.7 5.4 3.0 0.1 1.1 0.1 0.2 3.7 0.5 2.9 5.1 10.4 7.1 8.9 6.4 8.5 4.7 2.5 0.6 0.0 0.0 0.0
0.0 0.0 0.0 0.0 0.0 0.0 0.0 11.2 0.0 0.0 0.0 8.9 6.5 0.0 0.0 0.0 0.0 0.0 0.0 0.0 0.0 0.1 3.5 3.1 0.1 0.0 0.8 2.8 1.4 0.0 0.0 1.2 3.0 2.7 2.9 4.1 4.7 0.0 0.0 0.8 1.6 1.2 0.0 0.3
0.0 0.0 0.0 0.0 0.0 0.0 2.5 9.5 0.0 0.0 0.0 14.5 12.5 3.6 2.3 0.0 0.0 0.0 0.0 0.0 0.0 0.1 3.5 3.8 0.3 0.0 1.8 2.5 1.1 0.5 0.0 0.1 0.1 0.0 0.0 0.0 0.0 1.1 0.0 0.0 0.0 0.6 0.0 0.0
0.0 0.0 0.0 0.0 0.0 0.0 1.2 0.0 0.0 0.0 0.0 2.3 13.5 4.9 5.0 0.0 0.2 1.1 0.0 0.1 0.2 1.2 0.7 2.0 1.1 0.9 1.5 4.6 0.2 0.0 0.0 0.0 0.1 0.0 0.0 0.1 0.0 0.0 0.0 0.0 0.0 0.0 0.0 0.0
0.0 0.0 0.0 0.0 0.0 16.5 0.0 0.0 0.0 0.0 0.0 8.0 7.0 6.8 9.0 0.0 0.0 0.0 2.2 0.0 6.9 0.0 3.8 0.7 1.8 2.1 4.1 1.3 0.1 0.0 0.0 0.0 0.0 0.0 0.0 0.0 0.0 0.0 0.0 0.0 0.0 0.0 0.0 0.0
0.0 0.0 30.6 54.9 7.8 0.0 0.0 0.0 13.4 11.3 6.6 2.9 5.6 0.5 8.3 0.0 8.9 6.2 7.9 3.5 5.9 6.4 1.3 0.3 2.6 3.1 0.8 0.3 0.2 0.1 0.0 0.0 0.0 0.0 0.0 0.0 0.1 0.0 0.0 0.0 0.0 0.0 0.0 0.0
0.0 26.7 15.5 0.0 0.0 0.0 6.5 21.1 20.4 9.6 9.7 3.4 1.0 0.2 4.2 0.0 11.9 8.6 0.0 15.7 6.2 4.6 1.6 2.3 3.9 3.1 1.0 0.2 0.2 0.0 0.0 0.0 0.0 0.0 0.0 0.0 0.0 0.0 0.0 0.0 0.0 0.0 0.0 0.1
0.0 0.0 0.0 0.0 3.2 10.9 13.4 12.1 10.6 3.2 0.9 0.2 0.0 0.0 0.0 1.2 0.8 10.9 7.7 4.5 10.4 5.0 0.0 5.8 4.2 2.4 0.4 0.0 0.0 0.0 0.0 0.0 0.0 0.0 0.0 0.0 0.0 0.0 0.0 0.0 0.0 0.3 0.2 1.7
0.0 3.5 9.2 15.5 19.9 19.5 11.6 7.3 4.1 1.3 0.2 0.3 0.1 1.7 1.0 1.8 5.2 11.5 9.6 9.4 6.8 0.7 5.2 2.4 1.1 0.5 0.0 0.0 0.0 0.0 0.0 0.0 0.0 0.0 0.0 0.0 0.0 0.0 0.0 0.4 1.2 1.6 2.9 4.3
9.3 23.1 23.9 19.0 14.6 9.6 5.7 2.0 0.4 0.5 0.5 0.3 0.2 2.7 5.2 4.1 6.3 7.8 13.1 11.7 6.3 8.6 4.5 2.9 2.5 1.1 0.8 0.4 0.1 0.0 0.0 0.0 0.0 0.0 0.1 0.0 0.0 0.8 1.6 2.3 3.7 3.3 4.7 6.6
13.6 9.7 10.9 9.9 7.8 5.8 4.5 2.0 0.5 0.7 0.3 0.2 1.0 2.5 6.3 10.3 12.0 9.4 8.6 11.5 9.1 6.3 5.7 5.3 3.8 1.5 1.4 1.2 1.6 1.5 0.6 0.7 2.7 5.1 5.7 4.8 4.3 4.2 5.7 6.2 6.0 4.5 4.9 5.1
7.9 6.5 7.6 6.1 4.7 5.8 4.6 3.5 3.9 1.9 1.9 0.8 2.7 11.5 11.7 13.3 9.7 10.4 6.6 6.6 6.1 6.4 4.3 3.8 2.8 3.0 3.3 3.3 3.4 4.3 5.1 5.9 6.9 7.8 8.3 8.8 7.7 6.8 7.8 8.4 7.3 7.3 6.1 6.4
6.0 8.0 7.2 5.6 5.3 8.0 6.3 5.5 5.4 2.1 4.6 8.3 8.4 9.9 9.7 8.6 7.2 7.0 5.0 5.8 4.8 3.5 3.9 4.7 4.3 4.2 4.7 5.1 5.3 6.2 6.0 6.0 6.8 7.7 6.9 7.5 7.4 6.3 4.4 5.7 7.4 6.1 5.9 5.2

GFSNW_prec_snow_165.txt.gz
Snowfall_Accumulation
0.0 0.0 0.0 0.0 0.0 0.0 0.0 0.0 17.2 0.0 0.0 10.3 7.1 6.0 0.0 0.0 0.0 0.0 0.0 0.0 0.0 0.0 0.0 0.0 0.0 0.0 0.1 0.0 0.0 0.0 0.0 0.0 0.1 0.0 0.0 0.0 0.3 2.8 4.7 6.4 5.7 3.4 3.3 0.2
0.0 0.0 0.0 0.0 0.0 0.0 0.0 8.5 11.1 0.0 0.0 21.3 10.3 0.1 0.2 0.0 0.0 0.0 0.1 0.1 0.0 0.0 0.0 0.2 0.0 0.0 0.0 0.0 0.0 0.0 0.2 0.7 1.0 0.1 0.0 0.0 0.3 0.4 0.5 4.2 5.3 3.4 4.2 1.2
0.0 0.0 0.0 0.0 0.0 0.0 0.0 9.4 23.2 10.0 1.7 2.7 3.0 2.6 1.9 1.2 0.0 0.0 0.0 0.1 0.0 0.3 0.3 0.1 0.0 0.3 0.0 0.0 0.1 0.0 0.1 0.2 0.8 0.5 0.7 1.2 0.3 0.2 0.4 1.2 1.7 0.7 1.0 0.3
0.0 0.0 0.0 0.0 0.0 0.0 0.0 31.7 20.7 0.1 11.5 8.1 2.1 1.5 1.1 1.8 1.5 0.1 0.1 0.1 0.9 1.6 4.7 1.6 1.4 0.6 0.3 0.0 0.0 0.0 0.9 1.9 0.2 0.0 0.0 0.0 0.0 0.0 0.0 0.0 0.3 0.9 0.0 0.3
0.0 0.0 0.0 0.0 0.0 0.0 2.3 45.4 12.8 2.5 0.7 0.8 1.9 2.2 3.1 1.3 0.5 2.6 1.4 1.3 1.1 1.4 6.0 2.7 5.4 2.8 0.3 0.8 0.5 1.0 0.8 3.6 0.9 0.5 0.1 0.0 0.0 0.0 0.0 0.0 0.2 0.2 0.0 0.3
0.0 0.0 0.0 0.0 0.0 0.0 2.9 2.6 0.0 3.6 2.6 2.0 2.2 2.5 0.7 0.8 2.8 0.3 0.9 4.6 5.5 2.3 2.3 0.2 0.0 0.0 0.0 0.2 1.2 2.5 3.3 3.9 2.2 1.2 0.2 0.3 0.1 0.1 0.0 1.5 2.0 1.7 0.6 1.1
0.0 0.0 0.0 0.0 0.0 0.0 0.0 0.0 0.0 16.0 10.2 2.5 0.1 0.3 0.6 2.2 1.8 2.2 0.8 0.9 1.4 0.0 0.0 0.0 0.0 0.0 0.0 0.0 0.3 0.2 1.1 5.3 5.1 3.4 1.0 3.4 0.5 0.0 0.0 1.7 0.9 0.0 0.1 0.0
0.0 0.0 0.0 0.0 0.0 0.0 0.0 0.0 0.0 13.2 12.4 0.8 0.8 1.4 1.5 0.0 0.0 0.2 0.2 0.1 0.0 0.0 0.0 3.6 1.4 1.1 0.6 1.6 0.4 0.0 0.0 1.5 5.2 4.2 2.3 0.0 0.3 0.2 0.5 1.0 1.0 0.6 0.7 0.1
0.0 0.0 0.0 0.0 0.0 0.0 0.0 0.0 0.0 5.3 17.8 4.8 0.6 0.7 0.2 0.6 0.6 0.9 0.2 0.0 0.0 0.0 2.7 4.7 4.7 5.6 4.2 2.0 2.1 0.2 0.6 2.1 6.6 5.3 4.7 1.8 1.5 0.7 0.0 0.0 4.9 2.3 1.2 0.3
0.0 0.0 0.0 0.0 0.0 0.0 0.0 0.0 0.0 0.0 16.2 0.8 0.6 4.2 0.4 0.0 1.2 2.3 1.1 0.5 0.3 0.0 6.4 6.1 4.3 2.2 0.8 1.9 4.9 7.8 4.4 6.8 9.9 5.5 8.7 3.9 1.5 0.0 0.0 2.3 8.0 1.7 1.3 3.0
0.0 0.0 0.0 0.0 0.0 0.0 0.0 0.0 0.0 0.0 8.4 0.7 0.0 0.0 0.4 1.9 2.3 3.1 3.6 3.6 4.8 5.1 6.6 4.7 3.1 2.8 2.0 2.6 1.4 8.9 11.1 13.6 8.6 9.4 9.1 6.9 1.3 0.4 4.3 3.1 1.6 2.3 2.8 3.6
0.0 0.0 0.0 0.0 0.0 0.0 0.0 0.0 0.0 0.0 1.3 2.2 0.0 0.0 0.0 0.0 0.0 1.7 1.0 4.5 3.9 6.6 8.1 6.9 3.4 2.9 2.1 1.8 3.5 6.0 12.5 10.6 10.6 7.9 6.8 3.9 2.4 2.7 3.3 3.2 3.1 3.4 3.8 2.3
0.0 0.0 0.0 0.0 0.0 0.0 0.0 0.0 0.0 0.0 6.7 7.1 0.0 0.0 0.0 0.0 0.0 0.0 3.7 0.0 0.0 0.0 0.0 7.0 4.3 2.8 1.8 2.6 2.5 5.6 8.1 7.5 13.1 6.5 4.7 2.0 3.6 2.0 2.2 3.1 3.2 1.6 0.0 0.0
0.0 0.0 0.0 0.0 0.0 0.0 0.0 0.0 0.0 0.0 4.1 16.5 2.2 0.0 0.0 0.0 0.0 0.0 0.0 0.0 0.0 0.0 0.0 6.0 4.0 2.3 0.2 0.7 0.9 1.5 8.4 7.4 8.0 11.8 11.7 1.7 3.1 3.4 3.6 2.8 1.4 1.5 0.0 0.0
0.0 0.0 0.0 0.0 0.0 0.0 0.0 0.0 0.0 0.0 0.0 6.4 3.8 0.0 0.0 0.0 0.0 0.0 0.0 0.0 0.0 0.1 4.1 5.4 3.1 0.1 1.1 0.1 0.2 3.7 0.5 2.9 5.1 10.4 7.1 8.9 6.4 8.5 4.7 2.5 0.6 0.0 0.0 0.0
0.0 0.0 0.0 0.0 0.0 0.0 0.0 12.9 0.0 0.0 0.0 10.1 6.6 0.0 0.0 0.0 0.0 0.0 0.0 0.0 0.0 2.4 7.2 4.4 0.4 0.0 0.8 2.8 1.4 0.0 0.0 1.2 3.0 2.7 2.9 4.1 4.7 0.0 0.0 0.8 1.6 1.2 0.0 0.3
0.0 0.0 0.0 0.0 0.0 0.0 2.5 10.9 0.0 0.0 0.0 18.5 13.8 3.6 2.3 0.0 0.0 0.0 0.0 0.0 0.9 0.7 7.4 4.0 0.8 0.1 1.8 2.5 1.1 0.5 0.0 0.1 0.1 0.0 0.0 0.0 0.0 1.1 0.0 0.0 0.0 0.6 0.0 0.0
0.0 0.0 0.0 0.0 0.0 0.0 1.3 0.0 0.0 0.0 0.0 2.3 15.1 4.9 8.1 0.0 3.7 4.8 1.6 2.7 2.4 3.1 2.6 3.5 1.9 1.6 1.8 4.7 0.2 0.0 0.0 0.0 0.1 0.0 0.0 0.1 0.0 0.0 0.0 0.0 0.0 0.0 0.0 0.0
0.0 0.0 0.0 0.0 0.0 17.2 0.0 0.0 0.0 0.0 0.0 9.4 8.4 8.4 11.4 2.1 2.8 2.4 4.2 1.0 7.7 0.5 4.0 0.9 2.1 2.6 4.5 1.3 0.1 0.0 0.0 0.0 0.0 0.0 0.0 0.0 0.0 0.0 0.0 0.0 0.0 0.0 0.0 0.0
0.0 0.0 33.2 55.7 7.8 0.0 0.0 0.0 18.0 13.1 6.6 2.9 6.8 2.6 10.7 2.4 10.3 6.9 8.3 3.6 6.0 6.5 1.3 0.3 2.6 3.1 0.8 0.3 0.2 0.1 0.0 0.0 0.0 0.0 0.0 0.0 0.1 0.0 0.0 0.0 0.0 0.0 0.0 0.0
0.0 29.0 15.5 0.0 0.0 0.0 6.8 23.2 22.0 11.8 10.1 3.4 1.0 0.6 5.9 1.1 12.3 8.6 0.0 15.7 6.2 4.6 1.6 2.3 3.9 3.1 1.0 0.2 0.2 0.0 0.0 0.0 0.0 0.0 0.0 0.0 0.0 0.0 0.0 0.0 0.0 0.0 0.0 0.1
0.0 0.0 0.0 0.0 3.2 11.2 14.2 12.1 11.1 3.2 0.9 0.2 0.0 0.5 0.6 1.2 0.8 10.9 7.7 4.5 10.4 5.0 0.0 5.8 4.2 2.4 0.4 0.0 0.0 0.0 0.0 0.0 0.0 0.0 0.0 0.0 0.0 0.0 0.0 0.0 0.0 0.3 0.2 1.7
0.0 3.5 9.2 16.0 20.3 19.7 11.8 7.4 4.1 1.3 0.2 0.3 0.1 1.7 1.0 1.8 5.2 11.5 9.6 9.4 6.8 0.7 5.2 2.4 1.1 0.5 0.0 0.0 0.0 0.0 0.0 0.0 0.0 0.0 0.0 0.0 0.0 0.0 0.0 0.4 1.2 1.6 2.9 4.3
9.3 23.3 23.9 19.0 14.6 9.6 5.7 2.0 0.4 0.5 0.5 0.3 0.2 2.7 5.2 4.1 6.3 7.8 13.1 11.7 6.3 8.6 4.5 2.9 2.5 1.1 0.8 0.4 0.1 0.0 0.0 0.0 0.0 0.0 0.1 0.0 0.0 0.8 1.6 2.3 3.7 3.3 4.7 6.6
13.8 9.8 10.9 9.9 7.8 5.8 4.5 2.0 0.5 0.7 0.3 0.2 1.0 2.5 6.3 10.3 12.0 9.4 8.6 11.5 9.1 6.3 5.7 5.3 3.8 1.5 1.4 1.2 1.6 1.5 0.6 0.7 2.7 5.1 5.7 4.8 4.3 4.2 5.7 6.2 6.0 4.5 4.9 5.1
7.9 6.5 7.6 6.1 4.7 5.8 4.6 3.5 3.9 1.9 1.9 0.8 2.7 11.5 11.7 13.3 9.7 10.4 6.6 6.6 6.1 6.4 4.3 3.8 2.8 3.0 3.3 3.3 3.4 4.3 5.1 5.9 6.9 7.8 8.3 8.8 7.7 6.8 7.8 8.4 7.3 7.3 6.1 6.4
6.0 8.1 7.3 5.6 5.3 8.0 6.3 5.5 5.4 2.1 4.6 8.3 8.4 9.9 9.7 8.6 7.2 7.0 5.0 5.8 4.8 3.5 3.9 4.7 4.3 4.2 4.7 5.1 5.3 6.2 6.0 6.0 6.8 7.7 6.9 7.5 7.4 6.3 4.4 5.7 7.4 6.1 5.9 5.2

GFSNW_prec_snow_168.txt.gz
Snowfall_Accumulation
0.0 0.0 0.0 0.0 0.0 0.0 0.0 0.0 18.6 0.0 0.0 10.3 7.1 6.3 0.0 0.0 0.0 0.0 0.0 0.0 0.0 0.0 0.0 0.0 0.0 0.0 0.1 0.0 0.0 0.0 0.0 0.0 0.1 0.0 0.0 0.0 0.3 2.8 4.7 6.4 5.7 3.4 3.3 0.2
0.0 0.0 0.0 0.0 0.0 0.0 0.0 8.5 11.1 0.0 0.0 21.8 10.5 0.1 0.2 0.0 0.0 0.0 0.1 0.1 0.0 0.0 0.0 0.3 0.0 0.0 0.0 0.0 0.0 0.0 0.2 0.7 1.1 0.1 0.0 0.0 0.3 0.4 0.5 4.2 5.3 3.5 4.2 1.2
0.0 0.0 0.0 0.0 0.0 0.0 0.0 9.4 23.7 10.0 1.7 5.2 3.3 2.6 1.9 1.2 0.0 0.0 0.0 0.1 0.0 0.3 0.3 0.1 0.0 0.3 0.0 0.0 0.1 0.0 0.1 0.2 0.8 0.5 0.7 1.2 0.3 0.2 0.4 1.2 2.2 0.7 1.0 0.3
0.0 0.0 0.0 0.0 0.0 0.0 0.0 32.4 21.4 0.1 12.4 10.1 3.3 1.6 1.1 1.8 1.5 0.1 0.1 0.1 0.9 1.6 4.9 1.6 1.5 0.6 0.3 0.0 0.0 0.0 0.9 2.5 0.2 0.0 0.0 0.0 0.0 0.0 0.0 0.1 0.4 0.9 0.0 0.3
0.0 0.0 0.0 0.0 0.0 0.0 2.3 46.6 13.4 2.8 0.7 0.8 2.6 3.1 3.5 1.4 0.5 2.6 1.6 1.7 1.1 1.4 6.0 2.7 5.4 2.8 0.3 0.8 0.5 1.0 0.8 4.6 0.9 0.8 0.1 0.0 0.1 0.0 0.0 0.0 0.2 0.2 0.0 0.3
0.0 0.0 0.0 0.0 0.0 0.0 2.9 2.6 0.0 3.6 3.1 2.4 2.6 2.9 1.0 0.8 2.8 0.3 0.9 4.6 5.5 2.3 2.3 0.2 0.0 0.0 0.0 0.2 1.2 3.2 4.0 4.7 3.6 2.3 0.2 0.3 0.9 0.3 0.0 1.5 2.0 1.7 0.6 1.1
0.0 0.0 0.0 0.0 0.0 0.0 0.0 0.0 0.0 17.4 11.5 3.2 0.5 0.3 0.6 2.2 1.8 2.2 0.8 0.9 1.8 0.0 0.0 0.0 0.0 0.0 0.0 0.0 0.3 0.2 1.7 5.6 6.0 4.0 1.3 4.6 0.5 0.0 0.0 1.7 0.9 0.0 0.1 0.0
0.0 0.0 0.0 0.0 0.0 0.0 0.0 0.0 0.0 15.1 13.2 1.3 1.1 1.5 1.5 0.0 0.0 0.3 0.2 0.1 0.0 0.0 0.0 3.9 1.6 1.3 0.6 1.6 0.4 0.0 0.0 2.0 5.8 4.9 2.8 0.0 0.3 0.2 0.5 1.0 1.0 0.6 0.7 0.1
0.0 0.0 0.0 0.0 0.0 0.0 0.0 0.0 0.0 7.7 19.4 4.8 0.9 0.8 0.2 0.6 0.7 1.0 0.2 0.0 0.0 0.0 3.4 5.3 5.0 5.7 4.2 2.0 2.1 0.2 0.6 2.1 7.2 6.1 5.4 2.0 1.5 0.7 0.0 0.0 4.9 2.3 1.2 0.3
0.0 0.0 0.0 0.0 0.0 0.0 0.0 0.0 0.0 0.0 16.9 0.9 0.6 4.8 0.4 0.0 1.5 2.4 1.2 0.6 0.3 0.0 7.1 6.6 4.6 2.2 0.8 1.9 4.9 7.8 4.5 7.2 10.6 6.0 9.0 4.0 1.5 0.0 0.0 2.3 8.0 1.7 1.3 3.0
0.0 0.0 0.0 0.0 0.0 0.0 0.0 0.0 0.0 0.0 8.7 0.8 0.0 0.0 0.4 1.9 2.3 3.3 3.6 3.6 4.8 5.4 7.1 5.1 3.5 2.8 2.0 2.6 1.4 8.9 11.1 13.7 8.8 9.9 9.6 7.0 1.3 0.4 4.3 3.1 1.6 2.3 2.8 3.6
0.0 0.0 0.0 0.0 0.0 0.0 0.0 0.0 0.0 0.0 1.3 2.2 0.0 0.0 0.0 0.0 0.0 1.7 1.0 4.5 5.3 6.6 8.4 7.1 3.6 3.6 2.8 2.0 3.6 6.0 12.5 10.6 10.7 8.0 6.8 3.9 2.4 2.7 3.3 3.2 3.1 3.4 3.8 2.3
0.0 0.0 0.0 0.0 0.0 0.0 0.0 0.0 0.0 0.0 6.7 7.5 0.0 0.0 0.0 0.0 0.0 0.0 3.7 0.0 0.0 2.1 0.0 7.8 4.7 3.0 2.0 2.9 2.6 5.8 8.1 7.5 13.1 6.5 4.7 2.0 3.6 2.0 2.2 3.1 3.2 1.6 0.0 0.0
0.0 0.0 0.0 0.0 0.0 0.0 0.0 0.0 0.0 0.0 4.1 16.9 2.2 0.0 0.0 0.0 0.0 0.0 0.0 0.0 0.0 0.0 0.0 7.8 4.7 2.6 0.2 0.7 0.9 1.6 8.5 7.4 8.0 11.8 11.7 1.7 3.1 3.4 3.6 2.8 1.4 1.5 0.0 0.0
0.0 0.0 0.0 0.0 0.0 0.0 0.0 0.0 0.0 0.0 0.0 6.7 4.1 0.0 0.0 0.0 0.0 0.0 0.0 0.0 0.0 0.1 4.3 5.7 3.2 0.1 1.2 0.1 0.2 3.7 0.5 2.9 5.1 10.4 7.1 8.9 6.4 8.5 4.7 2.5 0.6 0.0 0.0 0.0
0.0 0.0 0.0 0.0 0.0 0.0 0.0 13.2 0.0 0.0 0.0 10.2 6.7 0.0 0.0 0.0 0.0 0.0 0.0 0.0 0.0 2.4 7.2 4.4 0.4 0.0 0.8 2.9 1.4 0.0 0.0 1.2 3.0 2.7 2.9 4.1 4.7 0.0 0.0 0.8 1.6 1.2 0.0 0.3
0.0 0.0 0.0 0.0 0.0 0.0 2.6 10.9 0.0 0.0 0.0 18.8 14.0 3.6 2.3 0.0 0.0 0.0 0.0 0.0 0.9 0.7 7.4 4.2 0.9 0.1 1.8 2.6 1.1 0.5 0.0 0.1 0.1 0.0 0.0 0.0 0.0 1.1 0.0 0.0 0.0 0.6 0.0 0.0
0.0 0.0 0.0 0.0 0.0 0.0 1.4 0.0 0.0 0.0 1.1 2.3 16.4 5.1 8.1 0.0 3.7 4.8 1.6 2.7 2.4 4.0 3.1 3.8 2.2 1.8 2.0 4.7 0.2 0.0 0.0 0.0 0.1 0.0 0.0 0.1 0.0 0.0 0.0 0.0 0.0 0.0 0.0 0.0
0.0 0.0 0.0 0.0 0.0 17.5 0.0 0.0 0.0 0.0 0.7 10.7 8.6 8.4 11.4 2.1 3.6 3.3 5.2 2.3 9.2 1.6 4.8 1.3 2.9 3.7 5.1 1.3 0.1 0.0 0.0 0.0 0.0 0.0 0.0 0.0 0.0 0.0 0.0 0.0 0.0 0.0 0.0 0.0
0.0 0.0 35.6 57.1 7.8 0.0 0.0 0.0 18.4 14.0 7.1 3.3 7.1 2.6 10.8 2.4 10.3 8.6 9.5 4.4 6.7 7.2 1.5 0.3 3.3 3.5 0.8 0.3 0.2 0.1 0.0 0.0 0.0 0.0 0.0 0.0 0.1 0.0 0.0 0.0 0.0 0.0 0.0 0.0
0.0 30.7 16.4 0.0 0.0 0.0 7.3 24.4 24.1 13.1 11.1 3.5 1.0 0.6 5.9 1.1 13.3 9.3 0.3 16.0 6.4 4.9 1.7 2.7 4.2 3.2 1.0 0.2 0.2 0.0 0.0 0.0 0.0 0.0 0.0 0.0 0.0 0.0 0.0 0.0 0.0 0.0 0.0 0.1
0.0 0.0 0.0 0.0 3.2 11.6 15.2 12.3 11.4 3.2 1.1 0.2 0.1 0.8 1.4 1.9 1.7 11.8 7.9 4.6 10.4 5.0 0.0 6.0 4.2 2.4 0.4 0.0 0.0 0.0 0.0 0.0 0.0 0.0 0.0 0.0 0.0 0.0 0.0 0.0 0.0 0.3 0.2 1.7
0.0 3.5 9.4 16.1 20.3 19.9 11.9 7.4 4.1 1.3 0.2 0.3 0.1 2.1 1.4 1.9 5.5 11.8 9.6 9.4 6.8 0.7 5.2 2.4 1.1 0.5 0.0 0.0 0.0 0.0 0.0 0.0 0.0 0.0 0.0 0.0 0.0 0.0 0.0 0.4 1.2 1.6 2.9 4.3
9.6 23.6 23.9 19.1 14.6 9.6 5.7 2.0 0.4 0.5 0.5 0.3 0.3 2.8 5.2 4.1 6.3 7.8 13.1 11.7 6.3 8.6 4.5 2.9 2.5 1.1 0.8 0.4 0.1 0.0 0.0 0.0 0.0 0.0 0.1 0.0 0.0 0.8 1.6 2.3 3.7 3.3 4.7 6.6
13.9 9.8 10.9 9.9 7.8 5.8 4.5 2.0 0.5 0.7 0.3 0.2 1.0 2.5 6.3 10.3 12.0 9.4 8.6 11.5 9.1 6.3 5.7 5.3 3.8 1.5 1.4 1.2 1.6 1.5 0.6 0.7 2.7 5.1 5.7 4.8 4.3 4.2 5.7 6.2 6.0 4.5 4.9 5.1
7.9 6.5 7.6 6.1 4.7 5.8 4.6 3.5 3.9 1.9 1.9 0.8 2.7 11.5 11.7 13.3 9.7 10.4 6.6 6.6 6.1 6.4 4.3 3.8 2.8 3.0 3.3 3.3 3.4 4.3 5.1 5.9 6.9 7.8 8.3 8.8 7.7 6.8 7.8 8.4 7.3 7.3 6.1 6.4
6.0 8.1 7.3 5.6 5.3 8.0 6.3 5.5 5.4 2.1 4.6 8.3 8.4 9.9 9.7 8.6 7.2 7.0 5.0 5.8 4.8 3.5 3.9 4.7 4.3 4.2 4.7 5.1 5.3 6.2 6.0 6.0 6.8 7.7 6.9 7.5 7.4 6.3 4.4 5.7 7.4 6.1 5.9 5.2

GFSNW_prec_snow_174.txt.gz
Snowfall_Accumulation
0.0 0.0 0.0 0.0 0.0 0.0 0.0 0.0 19.2 0.0 0.0 10.3 7.1 6.5 0.0 0.0 0.0 0.0 0.0 0.0 0.0 0.0 0.0 0.0 0.0 0.0 0.1 0.0 0.0 0.0 0.0 0.0 0.1 0.0 0.0 0.0 0.3 2.8 4.7 6.4 5.7 3.4 3.3 0.2
0.0 0.0 0.0 0.0 0.0 0.0 0.0 8.5 11.1 0.0 0.0 24.1 11.7 0.1 0.2 0.0 0.0 0.0 0.1 0.1 0.0 0.0 0.0 0.3 0.0 0.0 0.0 0.0 0.0 0.0 0.2 0.7 1.3 0.1 0.0 0.0 0.3 0.4 0.5 4.2 5.3 3.7 4.3 1.2
0.0 0.0 0.0 0.0 0.0 0.0 0.0 9.4 23.9 10.0 1.7 5.2 4.6 3.9 2.3 1.3 0.0 0.0 0.0 0.1 0.0 0.3 0.3 0.1 0.0 0.3 0.0 0.0 0.1 0.0 0.1 2.0 2.3 1.3 0.8 1.2 0.3 0.2 0.4 1.2 2.3 0.8 1.0 0.3
0.0 0.0 0.0 0.0 0.0 0.0 0.0 32.4 21.4 0.1 12.7 10.1 3.3 2.5 1.1 2.1 1.9 0.1 0.1 0.2 0.9 1.6 5.5 1.6 1.8 0.6 0.3 0.0 0.0 0.0 0.9 4.1 0.5 0.0 0.0 0.0 0.0 0.0 0.0 0.1 0.4 0.9 0.0 0.3
0.0 0.0 0.0 0.0 0.0 0.0 2.3 46.6 13.4 2.8 0.8 0.8 3.1 4.1 3.5 1.4 0.5 2.7 1.7 1.9 1.3 1.4 6.9 2.7 5.8 2.8 0.3 0.8 0.5 1.0 0.8 6.0 1.8 1.5 0.1 0.0 0.1 0.0 0.0 0.0 0.2 0.2 0.0 0.3
0.0 0.0 0.0 0.0 0.0 0.0 2.9 2.6 0.0 4.0 3.3 2.4 2.6 2.9 1.0 1.6 3.5 0.3 0.9 4.6 6.1 2.3 2.4 0.2 0.0 0.0 0.0 0.2 1.2 3.2 4.0 6.2 5.0 3.4 0.2 0.3 1.7 0.6 0.0 1.5 2.0 1.7 0.6 1.1
0.0 0.0 0.0 0.0 0.0 0.0 0.0 0.0 0.0 18.7 11.5 3.5 0.5 0.3 0.6 2.2 1.8 2.6 0.8 0.9 2.6 0.0 0.0 0.0 0.0 0.0 0.0 0.0 0.3 0.2 1.7 6.8 7.9 5.6 1.3 6.6 0.5 0.0 0.0 1.7 0.9 0.0 0.1 0.0
0.0 0.0 0.0 0.0 0.0 0.0 0.0 0.0 0.0 16.3 14.0 1.3 1.4 1.5 1.8 0.0 0.0 0.3 0.2 0.1 0.0 0.0 0.0 6.4 2.8 1.4 1.6 1.8 0.4 0.0 0.0 4.5 8.6 7.1 4.3 0.6 0.3 0.2 0.5 1.0 1.0 0.6 0.7 0.1
0.0 0.0 0.0 0.0 0.0 0.0 0.0 0.0 0.0 7.7 21.8 4.8 0.9 1.3 0.3 1.2 1.5 1.7 0.2 0.0 0.0 0.0 3.4 6.9 6.0 5.9 4.6 2.1 2.3 0.2 0.6 2.1 7.7 7.0 6.3 2.6 1.5 0.7 0.0 0.0 4.9 2.3 1.2 0.3
0.0 0.0 0.0 0.0 0.0 0.0 0.0 0.0 0.0 0.0 18.8 0.9 1.8 6.2 1.3 0.0 2.1 3.1 1.4 0.6 0.3 0.0 8.9 8.8 5.8 2.7 0.8 2.0 5.0 8.3 5.3 9.6 12.9 6.9 9.6 4.0 1.5 0.0 0.0 2.3 8.1 1.7 1.3 3.0
0.0 0.0 0.0 0.0 0.0 0.0 0.0 0.0 0.0 0.0 11.0 1.3 0.0 0.0 1.3 1.9 2.3 3.8 3.6 4.8 6.3 7.6 8.8 5.6 4.0 3.4 2.0 2.7 1.4 8.9 11.7 14.5 9.5 11.1 10.9 7.6 1.3 0.4 4.3 3.1 1.6 2.3 2.8 3.6
0.0 0.0 0.0 0.0 0.0 0.0 0.0 0.0 0.0 0.0 4.6 3.1 0.0 0.0 0.0 0.0 0.0 3.8 2.6 5.4 5.3 6.6 10.8 8.5 3.9 4.4 3.2 2.5 4.0 6.1 13.0 10.9 11.0 8.3 6.9 3.9 2.4 2.7 3.3 3.2 3.1 3.4 3.8 2.3
0.0 0.0 0.0 0.0 0.0 0.0 0.0 0.0 0.0 0.0 9.5 8.1 0.0 0.0 0.0 0.0 0.0 0.0 5.9 0.0 0.0 2.1 0.0 7.9 4.7 3.5 2.3 3.7 3.4 5.9 8.1 7.5 14.0 7.4 4.7 2.0 3.6 2.0 2.2 3.1 3.2 1.6 0.0 0.0
0.0 0.0 0.0 0.0 0.0 0.0 0.0 0.0 0.0 0.0 6.3 17.6 2.2 0.0 0.0 0.0 0.0 0.0 0.0 0.0 0.0 0.0 0.0 7.8 4.7 3.4 0.2 0.7 0.9 2.2 8.5 7.4 9.1 11.8 11.7 1.7 3.1 3.4 3.6 2.8 1.4 1.5 0.0 0.0
0.0 0.0 0.0 0.0 0.0 0.0 0.0 0.0 0.0 0.0 0.0 7.8 4.1 0.0 0.0 0.0 0.0 0.0 0.0 0.0 0.0 0.1 5.4 6.1 3.8 0.1 1.2 0.1 0.4 3.9 0.5 2.9 6.5 10.6 7.1 8.9 6.4 8.5 4.7 2.5 0.6 0.0 0.0 0.0
0.0 0.0 0.0 0.0 0.0 0.0 0.0 14.2 0.0 0.0 0.0 11.1 7.0 0.0 0.0 0.0 0.0 0.0 0.0 0.0 0.0 2.4 8.2 4.7 0.4 0.0 1.0 3.1 1.5 0.0 0.0 1.2 3.0 2.7 2.9 4.1 4.7 0.0 0.0 0.8 1.6 1.2 0.0 0.3
0.0 0.0 0.0 0.0 0.0 0.0 2.6 12.4 0.0 0.0 0.0 19.8 14.4 3.6 2.3 0.0 0.0 0.0 0.0 0.0 0.9 0.7 8.1 4.6 0.9 0.3 1.8 3.1 1.1 0.5 0.0 0.1 0.1 0.0 0.0 0.0 0.0 1.1 0.0 0.0 0.0 0.6 0.0 0.0
0.0 0.0 0.0 0.0 0.0 0.0 1.5 0.0 0.0 0.0 1.1 2.3 17.1 5.8 8.6 0.0 3.8 5.3 1.6 2.7 2.4 4.0 3.4 4.2 2.3 2.0 2.7 5.1 0.2 0.0 0.0 0.0 0.1 0.0 0.0 0.1 0.0 0.0 0.0 0.0 0.0 0.0 0.0 0.0
0.0 0.0 0.0 0.0 0.0 17.7 0.0 0.0 0.0 0.0 1.2 12.5 9.4 9.1 13.2 2.1 3.6 3.3 5.5 2.3 10.3 1.6 5.3 1.6 3.0 4.0 5.7 1.3 0.1 0.0 0.0 0.0 0.0 0.0 0.0 0.0 0.0 0.0 0.0 0.0 0.0 0.0 0.0 0.0
0.0 0.0 35.8 57.8 7.8 0.0 0.0 0.0 18.8 14.6 7.6 3.7 7.4 2.9 12.2 3.8 10.5 9.0 10.1 5.1 7.9 8.5 1.8 0.3 4.1 3.5 0.8 0.3 0.2 0.1 0.0 0.0 0.0 0.0 0.0 0.0 0.1 0.0 0.0 0.0 0.0 0.0 0.0 0.0
0.0 30.7 16.4 0.0 0.0 0.0 8.0 25.4 24.8 13.3 11.9 3.7 1.1 0.6 6.1 1.1 14.7 10.6 1.0 17.7 7.0 6.4 2.5 3.6 5.0 3.2 1.0 0.2 0.2 0.0 0.0 0.0 0.0 0.0 0.0 0.0 0.0 0.0 0.0 0.0 0.0 0.0 0.0 0.1
0.0 0.0 0.0 0.0 4.2 12.8 16.4 13.1 12.4 4.6 2.0 0.9 0.2 1.0 1.4 2.5 1.7 13.0 9.1 5.9 11.4 6.1 0.8 7.4 4.7 2.4 0.4 0.0 0.0 0.0 0.0 0.0 0.0 0.0 0.0 0.0 0.0 0.0 0.0 0.0 0.0 0.3 0.2 1.7
0.0 5.3 12.6 17.1 20.5 20.8 13.0 8.3 4.5 1.9 1.1 1.3 1.3 3.9 2.9 3.1 6.7 13.7 11.1 10.7 7.6 0.8 5.5 2.8 1.3 0.5 0.0 0.0 0.0 0.0 0.0 0.0 0.0 0.0 0.0 0.0 0.0 0.0 0.0 0.4 1.2 1.6 2.9 4.3
10.9 24.3 25.7 19.5 15.0 9.6 5.7 2.4 1.2 1.6 1.5 0.9 1.5 5.8 6.8 5.2 7.5 8.8 13.7 12.1 6.4 8.6 4.6 2.9 2.5 1.1 0.8 0.4 0.1 0.0 0.0 0.0 0.0 0.0 0.1 0.0 0.0 0.8 1.6 2.3 3.7 3.3 4.7 6.6
15.3 10.7 11.7 9.9 7.8 5.8 5.0 2.0 0.5 0.7 0.3 0.2 2.3 4.4 7.3 11.6 13.1 9.7 8.9 11.7 9.1 6.4 6.0 5.8 3.8 1.5 1.4 1.2 1.6 1.5 0.6 0.7 2.7 5.1 5.7 4.8 4.3 4.2 5.7 6.2 6.0 4.5 4.9 5.1
9.0 6.9 7.6 6.2 4.7 5.9 4.6 3.6 3.9 1.9 1.9 0.8 2.7 13.0 12.3 14.0 10.2 10.7 6.7 6.7 6.1 6.5 4.3 3.8 2.8 3.0 3.3 3.3 3.4 4.3 5.1 5.9 6.9 7.8 8.3 8.8 7.7 6.8 7.8 8.4 7.3 7.3 6.1 6.4
6.2 8.2 7.3 5.6 5.4 8.0 6.4 5.6 5.4 2.1 4.8 8.8 9.0 10.3 10.1 8.6 7.3 7.1 5.0 5.9 4.9 3.5 3.9 4.7 4.3 4.2 4.7 5.1 5.3 6.2 6.0 6.0 6.8 7.7 6.9 7.5 7.4 6.3 4.4 5.7 7.4 6.1 5.9 5.2